| time (UTC) | temp F | wind direction | speed knots | gust knots | rain 1hr in | rain 24hr in | rain mn in | humidity % | barometer mb |
| 20260502194711 | 48 | 326 | 0.0 | 4.3 | 0.02 | 0.15 | 0.15 | 96 | 1011.9 |
| 20260502194209 | 47 | 312 | 2.6 | 4.3 | 0.00 | 0.15 | 0.15 | 96 | 1011.4 |
| 20260502193704 | 47 | 325 | 2.6 | 6.1 | 0.00 | 0.15 | 0.15 | 96 | 1011.6 |
| 20260502193202 | 46 | 309 | 2.6 | 4.3 | 0.02 | 0.15 | 0.15 | 96 | 1012.0 |
| 20260502192657 | 46 | 326 | 1.7 | 3.5 | 0.07 | 0.15 | 0.15 | 96 | 1012.1 |
| 20260502192155 | 46 | 306 | 0.0 | 2.6 | 0.09 | 0.14 | 0.14 | 96 | 1012.0 |
| 20260502191651 | 47 | 293 | 1.7 | 3.5 | 0.07 | 0.13 | 0.13 | 95 | 1012.2 |
| 20260502191149 | 46 | 275 | 3.5 | 3.5 | 0.14 | 0.13 | 0.13 | 95 | 1012.2 |
| 20260502190646 | 46 | 336 | 1.7 | 3.5 | 0.17 | 0.12 | 0.12 | 94 | 1012.1 |
| 20260502190144 | 47 | 330 | 0.0 | 2.6 | 0.26 | 0.10 | 0.10 | 93 | 1012.1 |
| 20260502185638 | 47 | 348 | 1.7 | 3.5 | 0.28 | 0.09 | 0.09 | 91 | 1012.0 |
| 20260502185135 | 47 | 306 | 0.0 | 4.3 | 0.09 | 0.06 | 0.06 | 89 | 1012.0 |
| 20260502184631 | 48 | 6 | 0.0 | 5.2 | 0.00 | 0.04 | 0.04 | 87 | 1011.5 |
| 20260502184127 | 49 | 312 | 5.2 | 8.7 | 0.00 | 0.04 | 0.04 | 85 | 1011.7 |
| 20260502183624 | 50 | 323 | 7.0 | 9.6 | 0.00 | 0.04 | 0.04 | 84 | 1012.0 |
| 20260502183120 | 50 | 319 | 4.3 | 9.6 | 0.00 | 0.04 | 0.04 | 82 | 1011.7 |
| 20260502182615 | 52 | 3 | 4.3 | 11.3 | 0.00 | 0.04 | 0.04 | 77 | 1011.7 |
| 20260502182111 | 54 | 219 | 2.6 | 7.0 | 0.00 | 0.04 | 0.04 | 73 | 1011.6 |
| 20260502181609 | 54 | 176 | 2.6 | 4.3 | 0.00 | 0.04 | 0.04 | 73 | 1011.6 |
| 20260502181108 | 54 | 274 | 6.1 | 7.0 | 0.00 | 0.04 | 0.04 | 73 | 1011.9 |
| 20260502180604 | 53 | 246 | 3.5 | 5.2 | 0.00 | 0.04 | 0.04 | 74 | 1011.9 |
| 20260502164008 | 51 | 138 | 4.3 | 12.2 | 0.00 | 0.04 | 0.04 | 82 | 1012.4 |
| 20260502163503 | 51 | 176 | 1.7 | 6.1 | 0.00 | 0.04 | 0.04 | 82 | 1012.1 |
| 20260502163000 | 51 | 115 | 2.6 | 7.0 | 0.00 | 0.04 | 0.04 | 84 | 1012.5 |
| 20260502162457 | 50 | 93 | 2.6 | 6.1 | 0.00 | 0.04 | 0.04 | 85 | 1012.5 |
| 20260502161954 | 50 | 106 | 3.5 | 7.8 | 0.00 | 0.04 | 0.04 | 86 | 1012.7 |
| 20260502161450 | 50 | 76 | 0.0 | 4.3 | 0.00 | 0.04 | 0.04 | 88 | 1012.8 |
| 20260502160949 | 49 | 123 | 2.6 | 7.8 | 0.00 | 0.04 | 0.04 | 88 | 1012.5 |
| 20260502160446 | 49 | 112 | 6.1 | 7.8 | 0.00 | 0.04 | 0.04 | 88 | 1012.8 |
| 20260502151930 | 49 | 135 | 0.0 | 8.7 | 0.00 | 0.04 | 0.04 | 88 | 1013.1 |
| 20260502151426 | 49 | 128 | 3.5 | 8.7 | 0.00 | 0.04 | 0.04 | 88 | 1013.2 |
| 20260502150924 | 49 | 192 | 2.6 | 4.3 | 0.00 | 0.04 | 0.04 | 88 | 1013.1 |
| 20260502150420 | 48 | 97 | 2.6 | 7.0 | 0.00 | 0.04 | 0.04 | 87 | 1013.2 |
| 20260502130306 | 47 | 112 | 2.6 | 4.3 | 0.00 | 0.04 | 0.04 | 97 | 1013.3 |
| 20260502123752 | 46 | 149 | 2.6 | 5.2 | 0.00 | 0.04 | 0.04 | 97 | 1013.9 |
| 20260502123248 | 45 | 112 | 3.5 | 6.1 | 0.00 | 0.04 | 0.04 | 97 | 1013.9 |
| 20260502122745 | 45 | 102 | 2.6 | 4.3 | 0.00 | 0.04 | 0.04 | 97 | 1014.1 |
| 20260502122241 | 45 | 119 | 3.5 | 4.3 | 0.00 | 0.04 | 0.04 | 97 | 1014.1 |
| 20260502121740 | 45 | 110 | 3.5 | 4.3 | 0.02 | 0.04 | 0.04 | 97 | 1014.1 |
| 20260502121237 | 45 | 93 | 1.7 | 2.6 | 0.02 | 0.04 | 0.04 | 97 | 1013.7 |
| 20260502120733 | 45 | 225 | 0.0 | 1.7 | 0.00 | 0.04 | 0.04 | 97 | 1013.9 |
| 20260502120230 | 45 | 269 | 0.0 | 2.6 | 0.02 | 0.04 | 0.04 | 97 | 1014.0 |
| 20260502115728 | 45 | 229 | 0.0 | 2.6 | 0.05 | 0.04 | 0.04 | 97 | 1014.2 |
| 20260502115225 | 45 | 267 | 2.6 | 4.3 | 0.07 | 0.04 | 0.04 | 97 | 1014.0 |
| 20260502114720 | 45 | 308 | 0.0 | 2.6 | 0.02 | 0.03 | 0.03 | 97 | 1013.7 |
| 20260502114218 | 45 | 318 | 2.6 | 4.3 | 0.00 | 0.02 | 0.02 | 97 | 1013.8 |
| 20260502113715 | 45 | 309 | 2.6 | 4.3 | 0.00 | 0.02 | 0.02 | 97 | 1013.8 |
| 20260502113213 | 45 | 305 | 2.6 | 4.3 | 0.00 | 0.02 | 0.02 | 96 | 1013.8 |
| 20260502112711 | 45 | 297 | 1.7 | 3.5 | 0.00 | 0.02 | 0.02 | 96 | 1013.7 |
| 20260502112208 | 45 | 262 | 1.7 | 3.5 | 0.00 | 0.02 | 0.02 | 96 | 1013.6 |
| 20260502111705 | 45 | 286 | 2.6 | 2.6 | 0.00 | 0.02 | 0.02 | 96 | 1013.5 |
| 20260502111203 | 45 | 275 | 2.6 | 2.6 | 0.00 | 0.02 | 0.02 | 96 | 1013.2 |
| 20260502110700 | 45 | 76 | 0.0 | 2.6 | 0.00 | 0.02 | 0.02 | 96 | 1013.1 |
| 20260502110157 | 44 | 71 | 1.7 | 3.5 | 0.00 | 0.02 | 0.02 | 96 | 1013.2 |
| 20260502105655 | 44 | 41 | 3.5 | 4.3 | 0.02 | 0.02 | 0.02 | 96 | 1013.0 |
| 20260502105152 | 44 | 72 | 3.5 | 4.3 | 0.00 | 0.02 | 0.02 | 95 | 1013.3 |
| 20260502104649 | 44 | 147 | 0.0 | 0.0 | 0.00 | 0.02 | 0.02 | 95 | 1013.6 |
| 20260502104147 | 44 | 175 | 0.0 | 0.0 | 0.02 | 0.02 | 0.02 | 95 | 1013.4 |
| 20260502103644 | 44 | 301 | 0.0 | 2.6 | 0.02 | 0.02 | 0.02 | 95 | 1013.4 |
| 20260502103142 | 44 | 249 | 0.0 | 3.5 | 0.00 | 0.02 | 0.02 | 95 | 1013.0 |
| 20260502102638 | 44 | 299 | 0.0 | 2.6 | 0.00 | 0.02 | 0.02 | 95 | 1012.9 |
| 20260502102135 | 44 | 185 | 0.0 | 2.6 | 0.02 | 0.02 | 0.02 | 95 | 1013.1 |
| 20260502101633 | 44 | 129 | 2.6 | 2.6 | 0.02 | 0.02 | 0.02 | 94 | 1012.9 |
| 20260502101131 | 44 | 124 | 0.0 | 1.7 | 0.00 | 0.01 | 0.01 | 94 | 1012.7 |
| 20260502100629 | 44 | 155 | 1.7 | 3.5 | 0.00 | 0.01 | 0.01 | 94 | 1012.8 |
| 20260502100127 | 44 | 193 | 0.0 | 2.6 | 0.02 | 0.01 | 0.01 | 94 | 1012.8 |
| 20260502091101 | 44 | 105 | 0.0 | 3.5 | 0.00 | 0.01 | 0.01 | 94 | 1012.3 |
| 20260502090558 | 44 | 105 | 2.6 | 3.5 | 0.00 | 0.01 | 0.01 | 94 | 1012.4 |
| 20260502071452 | 46 | 82 | 2.6 | 3.5 | 0.00 | 0.00 | 0.00 | 84 | 1012.8 |
| 20260502070950 | 46 | 161 | 1.7 | 4.3 | 0.00 | 0.00 | 0.00 | 83 | 1012.6 |
| 20260502070448 | 46 | 93 | 4.3 | 5.2 | 0.00 | 0.00 | 0.00 | 82 | 1012.5 |
| 20260502065946 | 46 | 102 | 4.3 | 5.2 | 0.00 | 0.00 | 0.00 | 82 | 1012.4 |
| 20260502065445 | 47 | 87 | 3.5 | 4.3 | 0.00 | 0.00 | 0.00 | 82 | 1012.5 |
| 20260502064942 | 47 | 144 | 4.3 | 5.2 | 0.00 | 0.00 | 0.00 | 80 | 1012.3 |
| 20260502064440 | 47 | 55 | 0.0 | 4.3 | 0.00 | 0.00 | 0.00 | 79 | 1012.6 |
| 20260502063937 | 47 | 63 | 1.7 | 4.3 | 0.00 | 0.00 | 0.00 | 78 | 1012.6 |
| 20260502063435 | 47 | 100 | 2.6 | 4.3 | 0.00 | 0.00 | 0.00 | 78 | 1012.6 |
| 20260502062932 | 47 | 83 | 5.2 | 5.2 | 0.00 | 0.00 | 0.00 | 78 | 1012.7 |
| 20260502062429 | 47 | 134 | 3.5 | 4.3 | 0.00 | 0.00 | 0.00 | 78 | 1012.8 |
| 20260502061928 | 47 | 100 | 3.5 | 4.3 | 0.00 | 0.00 | 0.00 | 79 | 1013.0 |
| 20260502061425 | 47 | 113 | 0.0 | 3.5 | 0.00 | 0.00 | 0.00 | 79 | 1012.8 |
| 20260502060921 | 47 | 233 | 0.0 | 4.3 | 0.00 | 0.00 | 0.00 | 81 | 1013.0 |
| 20260502060416 | 47 | 119 | 0.0 | 2.6 | 0.00 | 0.00 | 0.00 | 79 | 1013.1 |
| 20260502055914 | 47 | 122 | 3.5 | 4.3 | 0.00 | 0.00 | 0.00 | 78 | 1012.6 |
| 20260502055411 | 47 | 60 | 3.5 | 4.3 | 0.00 | 0.00 | 0.00 | 76 | 1012.5 |
| 20260502054906 | 48 | 57 | 0.0 | 2.6 | 0.00 | 0.00 | 0.00 | 74 | 1012.9 |
| 20260502054403 | 48 | 219 | 1.7 | 4.3 | 0.00 | 0.00 | 0.00 | 72 | 1012.9 |
| 20260502053900 | 48 | 125 | 0.0 | 2.6 | 0.00 | 0.00 | 0.00 | 72 | 1013.0 |
| 20260502053357 | 48 | 140 | 4.3 | 5.2 | 0.00 | 0.00 | 0.00 | 72 | 1012.7 |
| 20260502052854 | 48 | 163 | 0.0 | 3.5 | 0.00 | 0.00 | 0.00 | 72 | 1013.1 |
| 20260502052352 | 48 | 122 | 2.6 | 4.3 | 0.00 | 0.00 | 0.00 | 72 | 1012.9 |
| 20260502051850 | 48 | 131 | 0.0 | 4.3 | 0.00 | 0.00 | 0.00 | 71 | 1012.9 |
| 20260502051349 | 48 | 129 | 3.5 | 3.5 | 0.00 | 0.00 | 0.00 | 71 | 1013.1 |
| 20260502050845 | 48 | 102 | 2.6 | 4.3 | 0.00 | 0.00 | 0.00 | 70 | 1013.1 |
| 20260502050341 | 48 | 137 | 2.6 | 3.5 | 0.00 | 0.00 | 0.00 | 70 | 1013.1 |
| 20260502045838 | 48 | 96 | 2.6 | 3.5 | 0.00 | 0.00 | 0.00 | 69 | 1012.9 |
| 20260502045335 | 48 | 116 | 3.5 | 4.3 | 0.00 | 0.00 | 0.00 | 69 | 1013.0 |
| 20260502044833 | 49 | 129 | 0.0 | 2.6 | 0.00 | 0.00 | 0.00 | 68 | 1013.0 |
| 20260502044328 | 49 | 150 | 2.6 | 3.5 | 0.00 | 0.00 | 0.00 | 68 | 1013.1 |
| 20260502043825 | 49 | 160 | 1.7 | 4.3 | 0.00 | 0.00 | 0.00 | 67 | 1013.0 |
| 20260502043323 | 49 | 93 | 2.6 | 6.1 | 0.00 | 0.00 | 0.00 | 67 | 1012.8 |
| 20260502042822 | 49 | 162 | 0.0 | 7.0 | 0.00 | 0.00 | 0.00 | 67 | 1012.9 |
| 20260502042320 | 49 | 144 | 2.6 | 6.1 | 0.00 | 0.00 | 0.00 | 67 | 1012.8 |
| 20260502041817 | 49 | 127 | 2.6 | 4.3 | 0.00 | 0.00 | 0.00 | 66 | 1012.9 |
| 20260502041314 | 49 | 154 | 1.7 | 2.6 | 0.00 | 0.00 | 0.00 | 65 | 1012.9 |
| 20260502040812 | 49 | 121 | 2.6 | 2.6 | 0.00 | 0.00 | 0.00 | 65 | 1013.1 |
| 20260502040308 | 50 | 109 | 2.6 | 4.3 | 0.00 | 0.00 | 0.00 | 64 | 1013.1 |
| 20260502035804 | 50 | 129 | 3.5 | 4.3 | 0.00 | 0.00 | 0.00 | 63 | 1012.8 |
| 20260502035301 | 50 | 133 | 2.6 | 3.5 | 0.00 | 0.00 | 0.00 | 62 | 1013.2 |
| 20260502034758 | 50 | 147 | 0.0 | 2.6 | 0.00 | 0.00 | 0.00 | 62 | 1013.2 |
| 20260502034257 | 50 | 120 | 2.6 | 2.6 | 0.00 | 0.00 | 0.00 | 61 | 1013.3 |
| 20260502033755 | 50 | 105 | 1.7 | 2.6 | 0.00 | 0.00 | 0.00 | 61 | 1013.1 |
| 20260502033252 | 50 | 134 | 0.0 | 3.5 | 0.00 | 0.00 | 0.00 | 60 | 1013.0 |
| 20260502032748 | 50 | 101 | 1.7 | 4.3 | 0.00 | 0.00 | 0.00 | 59 | 1013.1 |
| 20260502032245 | 50 | 120 | 2.6 | 3.5 | 0.00 | 0.00 | 0.00 | 58 | 1013.1 |
| 20260502031743 | 50 | 141 | 3.5 | 4.3 | 0.00 | 0.00 | 0.00 | 57 | 1013.1 |
| 20260502031240 | 51 | 161 | 0.0 | 2.6 | 0.00 | 0.00 | 0.00 | 57 | 1013.3 |
| 20260502030739 | 51 | 269 | 0.0 | 0.0 | 0.00 | 0.00 | 0.00 | 56 | 1013.2 |
| 20260502030237 | 51 | 240 | 0.0 | 2.6 | 0.00 | 0.00 | 0.00 | 55 | 1013.1 |
| 20260502025734 | 51 | 267 | 0.0 | 4.3 | 0.00 | 0.00 | 0.00 | 54 | 1012.9 |
| 20260502025232 | 52 | 210 | 0.0 | 3.5 | 0.00 | 0.00 | 0.00 | 54 | 1013.0 |
| 20260502024729 | 52 | 219 | 0.0 | 5.2 | 0.00 | 0.00 | 0.00 | 53 | 1012.9 |
| 20260502024227 | 52 | 292 | 0.0 | 4.3 | 0.00 | 0.00 | 0.00 | 52 | 1013.1 |
| 20260502023725 | 52 | 240 | 2.6 | 2.6 | 0.00 | 0.00 | 0.00 | 53 | 1013.0 |
| 20260502023222 | 52 | 222 | 2.6 | 4.3 | 0.00 | 0.00 | 0.00 | 53 | 1013.0 |
| 20260502022720 | 52 | 269 | 0.0 | 4.3 | 0.00 | 0.00 | 0.00 | 52 | 1013.1 |
| 20260502022216 | 52 | 44 | 0.0 | 4.3 | 0.00 | 0.00 | 0.00 | 52 | 1013.2 |
| 20260502021713 | 52 | 228 | 3.5 | 3.5 | 0.00 | 0.00 | 0.00 | 52 | 1013.0 |
| 20260502021210 | 52 | 230 | 1.7 | 5.2 | 0.00 | 0.00 | 0.00 | 52 | 1013.1 |
| 20260502020707 | 51 | 223 | 2.6 | 5.2 | 0.00 | 0.00 | 0.00 | 53 | 1013.0 |
| 20260502020204 | 51 | 223 | 0.0 | 4.3 | 0.00 | 0.00 | 0.00 | 53 | 1013.1 |
| 20260502015702 | 51 | 242 | 4.3 | 7.0 | 0.00 | 0.00 | 0.00 | 52 | 1013.1 |
| 20260502015158 | 50 | 306 | 3.5 | 5.2 | 0.00 | 0.00 | 0.00 | 55 | 1013.1 |
| 20260502014656 | 50 | 289 | 3.5 | 4.3 | 0.00 | 0.00 | 0.00 | 55 | 1012.9 |
| 20260502014153 | 50 | 283 | 0.0 | 2.6 | 0.00 | 0.00 | 0.00 | 58 | 1013.0 |
| 20260502013649 | 50 | 135 | 0.0 | 0.0 | 0.00 | 0.00 | 0.00 | 51 | 1012.7 |
| 20260502013144 | 50 | 135 | 0.0 | 0.0 | 0.00 | 0.00 | 0.00 | 51 | 1012.7 |
| 20260502012642 | 50 | 129 | 0.0 | 3.5 | 0.00 | 0.00 | 0.00 | 50 | 1012.6 |
| 20260502012140 | 50 | 120 | 2.6 | 3.5 | 0.00 | 0.00 | 0.00 | 49 | 1012.6 |
| 20260502011636 | 51 | 113 | 2.6 | 3.5 | 0.00 | 0.00 | 0.00 | 47 | 1012.6 |
| 20260502011132 | 51 | 113 | 0.0 | 0.0 | 0.00 | 0.00 | 0.00 | 47 | 1012.6 |
| 20260502010630 | 51 | 113 | 0.0 | 1.7 | 0.00 | 0.00 | 0.00 | 46 | 1012.3 |
| 20260502010126 | 51 | 125 | 0.0 | 2.6 | 0.00 | 0.00 | 0.00 | 46 | 1012.4 |
| 20260502005624 | 51 | 127 | 0.0 | 1.7 | 0.00 | 0.00 | 0.00 | 47 | 1012.5 |
| 20260502005121 | 51 | 89 | 0.0 | 0.0 | 0.00 | 0.00 | 0.00 | 47 | 1012.4 |
| 20260502004616 | 51 | 89 | 0.0 | 0.0 | 0.00 | 0.00 | 0.00 | 48 | 1012.2 |
| 20260502004114 | 51 | 89 | 0.0 | 0.0 | 0.00 | 0.00 | 0.00 | 45 | 1012.2 |
| 20260502003612 | 52 | 83 | 0.0 | 2.6 | 0.00 | 0.00 | 0.00 | 44 | 1012.2 |
| 20260502003108 | 52 | 76 | 0.0 | 2.6 | 0.00 | 0.00 | 0.00 | 44 | 1012.3 |
| 20260502002604 | 52 | 66 | 0.0 | 0.0 | 0.00 | 0.00 | 0.00 | 44 | 1012.2 |
| 20260502002102 | 53 | 103 | 0.0 | 0.0 | 0.00 | 0.00 | 0.00 | 42 | 1011.7 |
| 20260502001600 | 53 | 81 | 2.6 | 2.6 | 0.00 | 0.00 | 0.00 | 43 | 1011.9 |
| 20260502001056 | 53 | 87 | 2.6 | 2.6 | 0.00 | 0.00 | 0.00 | 43 | 1012.0 |
| 20260502000555 | 53 | 109 | 0.0 | 2.6 | 0.00 | 0.00 | 0.00 | 44 | 1011.9 |
| 20260502000052 | 53 | 82 | 1.7 | 2.6 | 0.00 | 0.00 | 0.00 | 43 | 1011.6 |
| 20260501235547 | 54 | 230 | 0.0 | 0.0 | 0.00 | 0.00 | 0.00 | 41 | 1011.6 |
| 20260501235043 | 55 | 301 | 0.0 | 1.7 | 0.00 | 0.00 | 0.00 | 40 | 1011.5 |
| 20260501234539 | 55 | 281 | 0.0 | 1.7 | 0.00 | 0.00 | 0.00 | 40 | 1011.5 |
| 20260501234038 | 56 | 298 | 0.0 | 2.6 | 0.00 | 0.00 | 0.00 | 40 | 1011.4 |
| 20260501233535 | 56 | 306 | 0.0 | 2.6 | 0.00 | 0.00 | 0.00 | 39 | 1011.3 |
| 20260501233032 | 56 | 305 | 0.0 | 0.0 | 0.00 | 0.00 | 0.00 | 39 | 1011.4 |
| 20260501232528 | 57 | 313 | 1.7 | 2.6 | 0.00 | 0.00 | 0.00 | 39 | 1011.2 |
| 20260501232025 | 57 | 299 | 4.3 | 4.3 | 0.00 | 0.00 | 0.00 | 41 | 1011.3 |
| 20260501231523 | 57 | 301 | 3.5 | 9.6 | 0.00 | 0.00 | 0.00 | 37 | 1011.1 |
| 20260501231021 | 57 | 289 | 4.3 | 5.2 | 0.00 | 0.00 | 0.00 | 36 | 1010.9 |
| 20260501230520 | 58 | 328 | 2.6 | 5.2 | 0.00 | 0.00 | 0.00 | 37 | 1010.9 |
| 20260501230017 | 58 | 306 | 4.3 | 6.1 | 0.00 | 0.00 | 0.00 | 37 | 1010.9 |
| 20260501225515 | 58 | 306 | 4.3 | 5.2 | 0.00 | 0.00 | 0.00 | 36 | 1010.8 |
| 20260501225010 | 58 | 327 | 3.5 | 7.8 | 0.00 | 0.00 | 0.00 | 37 | 1010.7 |
| 20260501224508 | 58 | 298 | 5.2 | 6.1 | 0.00 | 0.00 | 0.00 | 37 | 1010.5 |
| 20260501224005 | 58 | 287 | 3.5 | 7.8 | 0.00 | 0.00 | 0.00 | 35 | 1010.7 |
| 20260501223501 | 59 | 292 | 5.2 | 8.7 | 0.00 | 0.00 | 0.00 | 36 | 1010.7 |
| 20260501222957 | 59 | 293 | 5.2 | 11.3 | 0.00 | 0.00 | 0.00 | 35 | 1010.5 |
| 20260501222454 | 59 | 296 | 4.3 | 8.7 | 0.00 | 0.00 | 0.00 | 35 | 1010.6 |
| 20260501221950 | 59 | 315 | 7.0 | 9.6 | 0.00 | 0.00 | 0.00 | 34 | 1010.7 |
| 20260501221447 | 59 | 310 | 10.4 | 11.3 | 0.00 | 0.00 | 0.00 | 35 | 1010.6 |
| 20260501220946 | 59 | 236 | 4.3 | 9.6 | 0.00 | 0.00 | 0.00 | 37 | 1010.7 |
| 20260501220443 | 59 | 333 | 3.5 | 6.1 | 0.00 | 0.00 | 0.00 | 35 | 1010.9 |
| 20260501215938 | 59 | 306 | 8.7 | 11.3 | 0.00 | 0.00 | 0.00 | 34 | 1010.6 |
| 20260501215436 | 60 | 284 | 6.1 | 9.6 | 0.00 | 0.00 | 0.00 | 34 | 1010.7 |
| 20260501214931 | 60 | 310 | 7.0 | 7.0 | 0.00 | 0.00 | 0.00 | 36 | 1010.8 |
| 20260501214427 | 60 | 278 | 5.2 | 6.1 | 0.00 | 0.00 | 0.00 | 34 | 1010.5 |
| 20260501213922 | 59 | 325 | 5.2 | 6.1 | 0.00 | 0.00 | 0.00 | 35 | 1010.5 |
| 20260501213420 | 60 | 269 | 7.0 | 9.6 | 0.00 | 0.00 | 0.00 | 34 | 1010.6 |
| 20260501212915 | 59 | 299 | 6.1 | 10.4 | 0.00 | 0.00 | 0.00 | 35 | 1010.5 |
| 20260501212412 | 60 | 299 | 4.3 | 7.8 | 0.00 | 0.00 | 0.00 | 35 | 1010.6 |
| 20260501211909 | 59 | 304 | 7.8 | 9.6 | 0.00 | 0.00 | 0.00 | 35 | 1010.6 |
| 20260501211406 | 59 | 318 | 11.3 | 13.9 | 0.00 | 0.00 | 0.00 | 34 | 1010.4 |
| 20260501210904 | 59 | 308 | 9.6 | 10.4 | 0.00 | 0.00 | 0.00 | 34 | 1010.6 |
| 20260501210400 | 59 | 304 | 10.4 | 14.8 | 0.00 | 0.00 | 0.00 | 33 | 1010.4 |
| 20260501205857 | 60 | 312 | 13.9 | 15.6 | 0.00 | 0.00 | 0.00 | 34 | 1010.6 |
| 20260501205354 | 59 | 310 | 5.2 | 9.6 | 0.00 | 0.00 | 0.00 | 34 | 1010.5 |
| 20260501204851 | 60 | 289 | 12.2 | 13.0 | 0.00 | 0.00 | 0.00 | 34 | 1010.5 |
| 20260501204347 | 60 | 299 | 8.7 | 13.0 | 0.00 | 0.00 | 0.00 | 33 | 1010.3 |
| 20260501203843 | 60 | 323 | 6.1 | 9.6 | 0.00 | 0.00 | 0.00 | 34 | 1010.4 |
| 20260501203340 | 59 | 292 | 0.0 | 7.8 | 0.00 | 0.00 | 0.00 | 34 | 1010.3 |
| 20260501202837 | 59 | 305 | 8.7 | 12.2 | 0.00 | 0.00 | 0.00 | 33 | 1010.4 |
| 20260501202334 | 59 | 318 | 6.1 | 8.7 | 0.00 | 0.00 | 0.00 | 33 | 1010.3 |
| 20260501201831 | 59 | 276 | 7.0 | 10.4 | 0.00 | 0.00 | 0.00 | 33 | 1010.2 |
| 20260501201328 | 59 | 289 | 3.5 | 11.3 | 0.00 | 0.00 | 0.00 | 33 | 1010.4 |
| 20260501200824 | 60 | 324 | 7.8 | 13.0 | 0.00 | 0.00 | 0.00 | 32 | 1010.3 |
| 20260501200321 | 60 | 293 | 4.3 | 12.2 | 0.00 | 0.00 | 0.00 | 33 | 1010.3 |
| 20260501195819 | 60 | 298 | 9.6 | 13.0 | 0.00 | 0.00 | 0.00 | 33 | 1010.3 |
| 20260501195315 | 60 | 352 | 5.2 | 8.7 | 0.00 | 0.00 | 0.00 | 34 | 1010.2 |